Tracking 19242 objects as of 16-Aug-2018
HD Live streaming from Space Station
objects crossing your sky now

FENGYUN 1C DEB

Track FENGYUN 1C DEB now!
10-day predictions


NORAD ID: 30441
Int'l Code: 1999-025AFC
Perigee: 849.5 km
Apogee: 1,128.9 km
Inclination: 98.9 °
Period: 104.7 minutes
Semi major axis: 7360 km
RCS: 0.038 m2 (small)
Launch date: May 10, 1999
Source: People's Republic of China (PRC)
Launch site: Taiyaun Space Center, China (TSC)

Note: This is SATELLITE DEBRIS
aabbcc
Your satellite tracking list
Your tracking list is empty




NASA's NSSDC Master Catalog

Two Line Element Set (TLE):
1 30441U 99025AFC 18227.47864544  .00000067  00000-0  97991-4 0  9991
2 30441  98.9433  50.1713 0189739 147.8642 213.4241 13.74891880580803
Source of the keplerian elements: AFSPC